DELTA 1 DEB, 18671

Orbit data source: Space-Track

DELTA 1 DEB, 18671 is space debris in SSO originally from a launch on Tue, 06 Nov 1973 UTC launched from the Air Force Western Test Range (AFWTR). Debris objects in space refer to the collection of defunct objects orbiting the Earth. Examples of debris include non-operational satellites, rocket bodies, and fragments generated from explosions, collisions, or faulty payload assembly.

Loading next visibility...
Identifier
18671, 1973-086GZ
Orbit
SSO
Country
Flag of USUS
Related business
Manufacturer
Unknown
Mission
Spacecraft
Bus & Motor
Unknown
Mass
Unknown
Launch date (UTC)
1973-11-06 (52 years ago)
Launch vehicle
Unknown
Launch site
Air Force Western Test Range (AFWTR)
Object type
Payload
Rocket body
Debris
Shape & HBR
Unknown shape, 1.1 m
Radar Cross Section
Small (<0.1 m²)

Expand to show TLE details & history
Last TLE update: 2 weeks ago

TLE from 2 weeks ago
0 DELTA 1 DEB
1 18671U 73086GZ  26023.39731683 -.00000035  00000-0  64816-4 0  9998
2 18671 101.8368 342.9070 0113833 285.8470 228.0105 12.39817399618487
Epoch: 2026-01-23T09:32Z
TLE epoch observation values (Epoch: 2026-01-23T09:32:08.174Z)
Latitude
26.51545°
Longitude
-96.8909°
Altitude
1,570.913 km
Speed
7.057 km/s
True Right ascension
11h 15m 31s
True Declination
26° 23' 33"
Sunlit
Object was in full shadow at epoch
Visualization orbit readout
Latitude
Unknown
Longitude
Unknown
Altitude
Unknown
Speed
Unknown
Apparent Right ascension
Unknown
Apparent Declination
Unknown
Sunlit
N/A
Visualization observer readout
Local Sidereal Time
06:36:11
Azimuth
Unknown
Elevation
Unknown
Doppler factor
Unknown
Orbital elements
Apogee altitude
1,594.678 km
Perigee altitude
1,415.207 km
Semi-major axis
7,883.079 km
Eccentricity
0.01138
Inclination
101.8368°
RAAN
342.907°
Arg. of periapsis
285.847°
True anomaly
227.05015°
Mean anomaly
228.0105°
Eccentric anomaly
227.52941°
Mean motion
3.10098 °/min
Orbital period
116.09 mins
BSTAR
0.000064816
Loading maneuver chart data...
Computing Atmospheric mass density...

Documentation

Showing up to 5 results
|